Location: St. Louis
(38.6270°N, 90.1994°W)
Time: 04:16:05
(UTC-05:00)

RS-15 - Pass Details

Date: 28 January 2022
Orbit: 1881 x 2163 km, 64.8° (Epoch: 20 May)

Event Time Altitude Azimuth Distance (km) Brightness Sun altitude
Rises 22:00:20 0° 302° (WNW) 5,575 11.0 -54.4°
Reaches altitude 10° 22:05:34 10° 320° (NW) 4,618 10.3 -55.3°
Maximum altitude 22:13:25 19° 1° (N) 3,988 9.7 -56.6°
Enters shadow 22:14:45 18° 9° (N) 4,015 9.7 -56.9°
